Regional Weather Roundup
Issued by NWS

Home | Current Version | Previous Version | Graphics & Text | Print | Product List | Glossary On
Versions: 1 2 3 4 5 6 7 8 9 10 11 12 13 14 15 16 17 18 19 20 21 22 23 24 25 26 27
000
ASUS45 KCYS 212010
RWRWY

WYOMING REGIONAL WEATHER ROUNDUP
NATIONAL WEATHER SERVICE CHEYENNE WY
200 PM MDT THU SEP 21 2017

NOTE:  "FAIR" INDICATES FEW OR NO CLOUDS BELOW 12,000 FEET
WITH NO SIGNIFICANT WEATHER AND/OR OBSTRUCTIONS TO VISIBILITY.

WYZ001-212100-
YELLOWSTONE NATIONAL PARK

CITY           SKY/WX    TMP DP  RH WIND       PRES   REMARKS
LK YELLOWSTONE NOT AVBL
W YELLOWSTONE  NOT AVBL

$$
WYZ002>013-054>058-071-098>099-212100-
NORTHERN WYOMING

CITY           SKY/WX    TMP DP  RH WIND       PRES   REMARKS
JACKSON        CLOUDY    40  36  86 CALM      29.81F
CODY           LGT RAIN  42  39  89 N12       29.83S
GREYBULL       CLOUDY    55  41  59 NW18      29.76S
WORLAND        CLOUDY    55  44  66 N16       29.76R
SHERIDAN       CLOUDY    54  41  61 NW13      29.81S
BUFFALO        CLOUDY    56  39  53 N8        29.82S
GILLETTE       FAIR      62  40  44 N10       29.76F
HULETT         FAIR      64  37  36 NE9       29.78R
NEWCASTLE      FAIR      77  32  19 N3        29.72S

$$
WYZ014>020-022>026-101>103-212100-
CENTRAL WYOMING

CITY           SKY/WX    TMP DP  RH WIND       PRES   REMARKS
BIG PINEY      FAIR      62  34  35 W24G33    29.76F
PINEDALE       CLOUDY    55  37  50 E6        29.77F
DUBOIS         DRIZZLE   45  37  76 NW5       29.78F
LANDER           N/A    N/A N/A N/A MISG      29.68F
RIVERTON       FAIR      66  39  37 VRB6      29.69F
CASPER         FAIR      70  35  27 N7        29.71F
DOUGLAS        FAIR      80  30  16 NW8       29.69F

$$
WYZ021-027>030-104>119-212100-
SOUTHERN WYOMING

CITY           SKY/WX    TMP DP  RH WIND       PRES   REMARKS
EVANSTON       FAIR      63  36  36 SW22G39   29.71F
KEMMERER         N/A     55  37  50 W9        29.76F
FORT BRIDGER   CLOUDY    63  37  37 MISG      29.76F
ROCK SPRINGS   FAIR      70  28  21 SW29G39   29.72F
DIXON          FAIR      76  24  14 SW26G40   29.80F
RAWLINS        FAIR      73  26  17 SW28G38   29.78F
SARATOGA       FAIR      73  23  15 S18G32    29.82F
LARAMIE        FAIR      76  16  10 S24G41    29.86S
CHEYENNE       FAIR      82  16   8 S12G17    29.79F
TORRINGTON     FAIR      84  30  14 E8        29.66F
PINE BLUFFS    FAIR      84  23  10 S6        29.75F

$$




USA.gov is the U.S. government's official web portal to all federal, state and local government web resources and services.